CAPE
0 0 0 0 0 0 5 18 34 17 11 16 17 12 1 0 0 0 0 0 0 0 0 0 1 5 8 12 14 20 30 37 45 55 64 83 65 71
0 0 0 0 0 0 7 31 44 36 14 13 14 13 0 0 0 0 0 0 0 0 0 0 1 3 7 12 17 18 21 23 30 40 53 59 73 65
0 0 0 0 0 4 21 40 42 35 26 8 9 3 0 0 0 0 0 0 0 0 0 0 0 2 9 5 3 4 8 11 18 28 46 58 69 73
0 0 0 0 0 4 16 26 19 22 15 5 4 0 0 0 0 0 0 0 0 0 0 0 1 1 1 2 2 6 12 14 17 22 38 42 47 52
0 0 0 0 0 8 6 1 2 0 0 1 0 0 0 0 0 0 0 0 0 0 0 0 0 0 0 0 1 3 5 9 13 13 15 23 31 33
0 0 0 0 0 6 0 0 0 0 0 0 0 0 0 0 0 0 0 0 0 0 0 0 0 0 0 0 0 0 1 3 8 13 13 30 23 13
0 0 0 0 0 1 0 0 0 0 0 0 0 1 0 0 0 0 0 0 0 2 3 14 5 3 1 0 0 0 0 1 4 13 18 16 18 12
0 0 0 0 0 0 0 0 0 0 0 0 1 0 0 0 0 1 3 5 3 1 4 7 4 2 0 0 0 0 1 3 5 12 19 29 18 33
0 0 0 0 0 0 0 0 0 0 0 1 1 1 3 0 0 2 6 10 9 4 3 8 1 1 2 0 0 0 1 2 2 14 15 6 9 6
0 0 0 0 0 0 0 0 0 0 0 0 0 0 0 0 1 7 16 18 10 6 3 4 2 6 4 0 0 0 0 0 0 0 3 4 8 4
0 0 0 0 0 0 0 0 0 0 0 0 0 0 0 0 1 17 20 18 15 5 1 9 8 9 7 3 9 0 0 0 1 0 0 0 9 18
0 0 0 0 0 0 0 0 0 0 0 0 0 0 0 0 0 7 12 19 16 13 1 12 13 13 11 2 14 23 36 15 2 0 0 0 0 18
0 0 0 0 0 0 0 3 5 0 0 0 0 0 0 2 7 7 7 10 17 13 6 10 18 16 14 26 10 24 24 25 32 9 0 1 0 6
0 0 0 0 0 0 0 1 1 0 2 4 2 1 4 7 5 6 6 7 9 7 5 9 23 19 25 28 33 15 34 25 27 13 13 10 4 4
1 0 0 0 0 0 0 0 0 8 12 14 8 3 3 3 0 0 1 6 3 3 0 6 15 15 16 20 20 20 28 14 17 20 43 10 12 27
1 2 0 0 0 3 1 3 15 15 14 13 8 4 3 1 1 5 9 11 8 5 1 1 1 11 18 13 12 14 19 7 18 20 28 8 9 4
2 5 10 8 7 6 8 11 8 15 15 10 13 7 4 4 3 5 6 5 10 10 8 7 1 1 3 3 14 13 19 16 18 16 16 13 15 13
18 18 26 13 10 8 9 4 13 10 8 8 10 8 8 6 7 5 4 6 10 6 6 7 6 12 10 8 2 10 14 7 11 12 14 12 19 14
16 43 37 22 22 4 3 2 11 12 7 9 11 8 7 4 2 5 9 7 9 6 6 7 5 11 17 21 9 0 14 12 4 6 16 12 16 13
47 43 47 36 13 2 1 2 2 12 8 9 7 9 9 5 8 4 8 8 9 3 4 4 0 1 11 13 10 5 0 15 8 5 9 9 17 0
4 13 60 40 20 10 4 8 9 14 12 9 9 6 7 3 7 5 7 0 0 1 2 2 0 0 0 13 10 11 20 1 7 13 12 6 33 16
7 6 7 8 27 13 18 17 10 14 11 9 8 7 6 3 4 2 6 11 5 3 3 1 0 0 3 11 16 8 14 11 0 0 0 6 8 22
7 5 6 6 6 15 5 14 16 14 12 7 7 5 6 2 2 4 8 3 3 2 3 0 0 0 0 6 6 8 7 9 7 10 10 1 2 2
CIN
0 0 0 0 0 0 0 0 0 0 0 0 0 0 -3 0 0 0 0 0 0 0 0 0 0 0 0 0 0 0 0 0 0 0 0 0 0 0
0 0 0 0 0 0 0 0 0 0 0 0 0 0 0 0 0 0 0 0 0 0 0 0 0 0 0 0 0 0 0 0 0 0 0 0 0 0
0 0 0 0 0 -1 0 0 0 0 0 0 0 0 0 0 0 0 0 0 0 0 0 0 0 0 0 0 0 0 0 0 0 0 0 0 0 0
0 0 0 0 0 -1 0 0 0 0 0 0 0 0 0 0 0 0 0 0 0 0 0 0 0 0 0 0 0 0 0 0 0 0 0 0 0 0
0 0 0 0 0 0 -3 0 0 0 0 0 0 0 0 0 0 0 0 0 0 0 0 0 0 0 0 0 0 0 0 0 0 0 0 0 0 0
0 0 0 0 0 -2 -1 0 0 0 0 0 0 0 0 0 0 0 0 0 0 0 0 0 0 0 0 0 0 0 0 0 0 0 0 0 0 0
0 0 0 0 0 -2 0 0 0 0 0 0 0 0 0 0 0 0 0 0 0 0 0 0 0 0 0 0 0 0 0 0 0 0 0 0 0 0
0 0 0 0 0 0 0 0 0 0 0 0 0 0 0 0 0 0 0 0 0 0 0 0 0 0 0 0 0 0 0 0 0 0 0 0 0 0
0 0 0 0 0 0 0 0 0 0 0 0 0 0 0 0 0 0 0 0 0 0 0 0 0 0 0 0 0 0 0 0 0 0 0 0 0 0
0 0 0 0 0 0 0 0 0 0 0 0 0 0 0 0 0 0 0 0 0 0 0 0 0 0 0 0 0 0 0 0 -2 -1 0 0 0 0
0 0 0 0 0 0 0 0 0 0 0 0 0 0 0 0 0 0 0 0 0 0 0 0 0 0 0 0 0 -1 0 -1 -2 0 0 0 -2 0
0 0 0 0 0 0 0 0 0 0 0 0 0 0 0 0 0 0 0 0 0 0 0 0 0 0 0 0 0 0 0 -1 -1 0 0 0 0 0
0 0 0 0 0 0 0 0 0 0 0 0 0 0 0 0 0 0 0 0 0 0 0 0 0 0 0 0 0 0 0 0 0 0 0 0 0 0
0 0 0 0 0 0 0 0 0 0 0 0 0 0 0 0 0 0 0 0 0 0 0 0 0 0 0 0 0 0 0 0 0 0 0 0 0 0
0 0 0 0 0 0 0 0 0 0 0 0 0 0 0 0 0 0 0 0 0 0 0 0 0 0 0 0 0 0 0 0 0 0 0 0 0 0
0 0 -1 0 -1 0 0 0 0 0 0 0 0 0 0 0 0 0 0 0 0 0 0 0 0 0 0 0 0 0 0 0 0 0 0 0 0 0
0 0 0 0 0 0 0 0 0 0 0 0 0 0 0 0 0 0 0 0 0 0 0 0 0 0 0 0 0 0 0 0 0 0 0 0 0 0
-1 0 -3 0 0 0 0 0 0 0 0 0 0 0 0 0 0 0 0 0 0 0 0 0 0 0 0 0 0 0 0 0 0 0 0 0 0 0
-3 0 -4 0 0 0 0 0 0 0 0 0 0 0 0 0 0 0 0 0 0 0 0 0 0 0 0 0 0 0 0 0 0 0 0 0 -1 0
0 0 0 -6 0 0 0 0 0 0 0 0 0 0 0 0 0 0 0 0 0 0 0 0 0 0 0 0 0 0 0 0 0 0 0 0 -1 0
0 0 0 -2 0 0 0 0 0 0 0 0 0 0 0 0 0 0 0 0 0 0 0 0 0 0 0 0 0 0 0 0 0 0 0 0 0 0
0 0 0 0 0 0 0 0 0 0 0 0 0 0 0 0 0 0 0 0 0 0 0 0 0 0 0 0 0 0 0 0 -1 0 0 0 0 0
0 0 0 0 0 0 0 0 0 0 0 0 0 0 0 0 0 0 0 0 0 0 0 0 0 0 0 0 0 0 0 0 0 0 0 0 0 0
Wind_Speed
4 5 4 4 4 5 5 6 7 9 9 5 6 5 4 4 6 10 11 16 18 20 20 21 21 21 21 22 23 24 25 26 27 26 28 26 24 23
3 5 6 5 5 5 5 5 5 7 8 6 6 6 5 6 8 10 12 17 18 18 19 19 20 22 23 22 23 25 26 27 27 27 28 26 24 23
6 8 9 7 6 5 5 6 6 6 10 9 5 6 7 9 9 10 11 11 11 16 18 21 22 22 22 23 24 24 24 26 27 27 28 25 24 23
10 9 9 6 8 7 6 8 8 8 9 13 9 7 8 9 10 11 9 9 11 14 19 22 22 21 20 21 21 23 24 24 24 25 26 24 23 25
10 9 10 9 9 7 8 7 7 6 7 8 10 6 7 7 9 10 10 10 9 15 19 19 17 17 19 21 22 23 24 24 24 24 25 24 24 24
11 10 10 10 10 9 8 9 7 7 7 8 9 8 8 7 7 9 9 9 10 10 13 11 15 19 20 20 21 22 21 20 21 21 21 20 20 23
10 9 10 11 10 9 7 8 8 7 8 8 9 8 9 8 9 8 9 10 11 9 9 8 11 11 10 14 15 17 17 18 19 19 20 21 21 22
10 10 10 10 11 12 13 11 9 9 10 8 8 9 11 8 7 7 9 9 11 8 11 11 11 11 10 10 16 20 21 21 19 19 19 17 18 20
11 11 10 8 9 10 11 11 12 13 12 10 11 10 11 9 8 9 10 11 12 11 13 12 11 11 9 11 18 20 20 19 18 18 17 18 19 20
11 12 13 12 10 11 11 10 11 11 12 10 11 11 9 8 8 9 11 13 11 10 10 12 10 10 11 12 17 15 15 15 15 17 19 20 21 22
10 11 12 12 11 14 11 12 12 12 11 15 15 14 12 13 13 9 9 10 11 10 9 7 9 12 11 11 7 10 14 16 18 18 20 22 20 21
10 11 13 16 14 16 13 12 13 13 11 10 10 11 13 12 12 11 8 9 10 9 3 7 10 9 7 7 9 10 10 13 15 18 21 22 21 10
8 9 9 15 19 18 18 12 14 12 9 9 8 7 8 8 7 7 8 8 9 10 9 9 9 10 8 12 11 11 8 10 11 12 17 18 19 18
11 9 10 12 17 19 16 19 20 11 8 8 8 8 8 8 8 7 8 8 9 12 12 12 9 10 10 12 13 11 11 11 11 10 10 16 22 23
9 13 16 15 15 13 17 19 17 10 10 10 9 8 8 7 7 6 7 9 10 11 9 10 9 10 9 11 13 11 12 9 10 9 10 11 12 9
12 11 10 10 11 10 8 11 10 10 11 10 10 8 6 6 6 6 6 6 7 8 7 9 10 10 10 10 10 10 10 8 11 10 9 11 8 8
11 8 7 8 7 7 9 9 8 10 10 9 9 8 8 7 6 5 5 5 7 7 7 7 8 10 10 13 9 8 8 9 9 10 11 10 7 9
10 10 9 8 9 8 8 9 9 10 10 10 10 9 8 8 7 6 5 5 7 7 8 7 8 8 6 4 7 6 7 8 9 10 9 9 8 10
10 10 8 7 8 7 7 9 9 9 8 8 9 9 9 8 6 7 5 5 6 6 7 6 6 6 7 6 2 3 7 9 9 7 7 7 6 8
8 8 8 8 7 6 7 8 8 8 8 8 9 9 9 8 7 7 6 6 6 6 6 6 5 5 6 6 5 5 7 7 7 7 6 5 3 4
12 13 10 9 8 7 6 7 8 8 8 7 8 8 8 8 8 7 6 5 5 6 6 5 5 9 7 5 4 4 1 5 8 8 8 4 4 6
11 12 12 13 9 5 5 6 7 8 8 7 8 8 8 8 8 8 6 6 5 5 5 5 6 5 4 4 5 2 2 1 3 8 16 12 5 5
11 11 11 11 10 10 9 8 7 7 7 7 7 8 8 9 8 7 7 6 5 5 5 5 4 4 4 4 4 3 1 1 2 2 6 13 13 13
Wind_Direction
206 210 227 246 241 249 257 260 272 290 294 302 279 225 247 279 315 315 309 307 305 300 301 299 296 295 294 295 291 292 293 293 292 292 286 289 288 288
216 227 234 242 249 248 248 245 245 261 279 305 280 273 266 277 304 301 302 302 295 297 297 297 294 291 291 293 295 293 291 288 288 287 288 282 282 286
223 235 245 239 243 238 233 238 243 229 267 286 275 291 267 290 296 301 297 294 292 291 297 295 293 290 293 293 288 286 287 287 284 282 280 283 282 283
238 232 239 230 231 241 236 243 248 250 267 284 293 280 277 299 298 297 298 295 295 298 298 294 296 295 289 288 286 286 284 284 283 279 277 282 283 283
246 235 236 226 235 240 234 248 247 250 253 267 281 282 284 290 297 297 298 295 294 301 292 292 292 289 290 288 288 285 284 282 281 279 274 273 277 278
243 234 234 228 237 243 239 244 251 252 255 262 274 281 285 297 294 297 303 306 310 306 295 283 288 290 287 286 285 284 283 281 281 281 270 271 272 274
246 235 232 231 235 240 241 244 242 252 260 266 272 277 283 296 302 310 298 310 309 300 298 305 302 300 291 286 280 280 286 284 280 279 276 272 269 269
257 241 237 226 228 218 214 233 247 249 257 263 270 275 286 300 294 297 302 306 311 307 307 305 299 296 295 292 297 295 290 286 282 281 281 293 299 278
257 250 243 231 224 230 225 220 212 218 238 257 259 270 287 286 290 291 296 302 303 308 304 301 301 294 297 298 300 301 292 283 278 279 292 291 292 288
262 255 248 244 231 227 231 231 233 228 224 225 246 266 273 267 273 286 296 293 292 294 297 296 300 301 306 303 300 299 293 283 274 284 284 292 292 289
270 258 248 242 230 216 227 233 237 238 226 233 243 256 250 250 261 289 287 301 301 307 305 288 303 311 306 293 297 310 289 288 272 285 279 291 290 295
276 263 235 242 230 203 223 229 239 240 226 224 229 232 238 246 251 257 280 291 300 309 322 310 314 319 307 301 316 310 313 299 287 280 287 285 284 285
274 274 259 234 231 222 209 227 233 238 223 228 236 239 244 250 253 251 264 278 286 281 291 297 298 299 284 304 305 310 306 307 301 292 281 281 287 282
266 268 265 244 235 233 221 227 228 216 223 224 225 234 243 250 257 258 260 273 273 276 287 283 280 285 289 291 299 312 316 308 300 299 305 299 290 281
254 253 254 248 245 243 239 241 227 209 216 222 225 233 238 250 264 256 258 277 278 281 279 282 280 280 281 285 294 309 311 315 306 310 309 300 299 293
269 269 257 262 263 257 245 239 226 214 213 222 229 231 236 229 237 241 259 286 285 288 290 290 288 282 281 279 287 296 306 312 309 320 317 305 317 334
272 258 242 239 239 245 251 240 226 219 213 212 227 225 228 229 235 233 249 274 279 294 299 302 301 289 279 274 276 278 308 313 316 322 324 318 343 354
273 260 248 233 244 248 248 255 237 224 218 218 214 224 225 225 230 223 239 256 279 292 300 310 316 315 305 229 231 292 314 321 322 325 324 325 344 357
279 267 241 230 242 244 250 255 256 236 229 219 219 216 215 219 206 225 235 253 273 285 294 302 309 313 319 321 306 218 318 323 324 325 338 338 338 359
267 288 276 255 244 234 231 241 257 249 220 222 218 215 207 207 205 217 226 246 266 282 290 293 299 309 305 310 318 312 321 314 337 340 342 332 317 284
354 342 295 258 254 239 233 245 252 246 229 220 214 206 202 200 208 215 222 229 248 268 278 294 315 307 281 265 245 259 120 7 9 5 348 336 358 36
346 347 345 344 315 249 251 261 261 249 241 229 220 202 199 197 206 204 208 221 225 254 274 293 304 306 303 297 312 313 206 9 49 28 31 31 359 27
341 339 338 339 342 339 343 321 274 265 250 236 219 203 193 195 203 202 204 207 223 239 260 289 306 308 305 320 332 345 346 326 5 39 51 30 58 64